Погода в Бискамже

Россия / Республика Хакасия     53°27′05″N   89°31′43″E
темп.,
°C
ветер,
м/с
пор.,
м/с
влажн.,
%
обл.,
%
осадки,
мм/ч
давл.,
гПа
погр.,
м
28 июня, вт
вт2801:00+13юз1191100 0.2 99919
04:00+14зюз3697100 0.4 1001197
07:00+13зюз4129695 3.9 10041128
10:00+14зюз6106661 0.3 10071257
13:00+13зюз486699 0.3 10091305
16:00+15зюз365688 0.0 10091423
19:00+15зюз34580 0.0 10091004
22:00+9зсз11910 0.0 101010
29 июня, ср
ср2901:00+7св11940 0.0 101112
04:00+6всв11950 0.0 101110
07:00+11вюв017892 0.0 1009128
10:00+18юз13515 0.0 1006804
13:00+22з36400 0.0 10041712
16:00+24зюз46320 0.0 10022064
19:00+23зюз005642 0.0 100143
22:00+15всв2263100 0.0 100015
30 июня, чт
чт3001:00+13св216196 0.0 100014
04:00+12вюв016398 0.0 99910
07:00+15всв2263100 0.1 99946
10:00+17юз117186 0.1 1001268
13:00+18з466830 0.2 1003879
16:00+20з345897 0.0 1003888
19:00+18з22625 0.0 1004693
22:00+12зсз119379 0.0 100410
1 июля, пт
пт101:00+11з1193100 0.3 100410
04:00+11юз1197100 0.3 100415
07:00+12всв0094100 0.3 100474
10:00+16зюз1176100 0.0 1004500
13:00+14юз1286100 0.3 1004263
16:00+17з4684100 1.3 1003919
19:00+14юз2491100 2.1 1005189
22:00+10зюз119615 0.1 100712
2 июля, сб
сб201:00+8з11979 0.1 100810
04:00+7зюз019928 0.0 100910
07:00+10юз129779 0.0 1008170
10:00+15юз23619 0.0 1007986
13:00+17зюз364699 0.1 10052121
16:00+17зсз355044 0.0 10051141
19:00+16зсз255399 0.0 10041400
22:00+10всв117794 0.0 100410